Wind_Speed
10 9 9 10 11 12 13 14 14 15 17 18 17 17 19 20 19 19 18 18 19 19 19 17 16 17 17 16 15 15 16 15 15 17 20 21 22 23 23 23 25 27 28 32 35 34 30 28 26 23 22 21 24 29 31 31 30 30 30 28 26 24 23
11 10 10 11 13 15 16 15 15 17 18 18 16 16 17 19 20 20 19 18 19 20 20 19 18 17 18 18 17 16 16 16 15 17 19 21 22 23 23 23 24 26 28 31 34 36 35 32 29 27 24 22 23 26 30 31 31 31 31 30 28 26 24
12 12 13 14 16 17 18 17 17 17 17 17 18 17 16 17 18 18 18 18 19 19 19 19 19 18 17 18 18 18 18 17 16 17 19 21 22 22 22 23 25 27 29 31 32 35 35 33 31 29 27 24 24 26 28 30 32 32 32 32 30 28 26
17 17 18 20 21 20 20 19 18 16 16 17 19 19 19 19 18 17 16 17 17 18 19 19 19 19 18 18 19 19 19 18 18 18 20 21 21 22 22 23 25 27 29 31 33 34 34 33 31 30 29 27 26 26 26 27 29 32 33 33 32 30 29
20 21 22 22 21 20 21 20 20 18 17 18 19 20 21 21 19 17 16 16 17 18 18 19 19 19 18 19 19 19 19 19 19 19 20 21 21 21 22 24 25 27 27 29 32 35 35 31 28 29 28 26 27 28 26 24 25 28 31 33 33 32 30
13 15 16 16 17 17 18 19 19 18 18 20 21 21 21 20 19 18 18 17 18 19 20 21 20 19 19 19 19 19 19 19 20 20 20 21 21 21 22 24 25 26 27 28 30 32 32 29 27 27 26 26 28 28 27 25 23 24 27 30 32 32 31
9 9 10 12 13 14 15 15 16 15 16 18 18 19 19 19 20 20 19 19 19 21 23 22 20 20 20 20 21 21 21 22 21 21 21 21 21 21 22 23 24 25 25 26 27 28 28 29 29 27 26 27 28 28 29 28 25 24 25 27 29 31 32
7 8 8 9 10 11 12 13 13 13 14 15 16 16 17 19 19 20 20 20 20 23 24 23 22 21 21 22 22 22 23 24 23 23 23 22 22 21 22 23 23 23 22 23 24 26 27 30 31 29 28 28 28 28 30 30 29 28 26 24 25 28 31
5 5 6 6 7 7 8 9 10 11 12 12 14 15 16 17 18 19 19 19 20 23 23 23 23 23 22 23 24 24 24 24 24 24 23 23 24 23 23 22 22 21 21 21 22 24 26 29 32 31 30 30 28 27 28 29 31 31 29 27 26 27 29
3 3 3 3 4 5 6 7 8 9 10 11 12 13 14 15 16 17 17 18 20 22 22 22 23 24 23 23 24 25 26 26 26 26 25 25 25 25 24 22 21 21 20 20 21 22 23 26 29 31 31 30 28 28 27 27 30 33 32 30 30 29 28
2 2 2 3 4 4 5 6 7 8 9 10 11 12 13 13 14 15 16 17 18 20 21 22 23 24 24 24 24 25 26 27 27 27 26 26 25 24 23 22 21 21 20 20 21 21 21 23 27 30 30 29 28 29 29 29 32 33 31 31 31 30 29
3 3 3 4 4 4 5 6 7 8 9 10 11 12 13 13 13 14 14 16 17 18 19 20 21 22 22 23 25 25 26 27 28 28 27 26 25 24 23 22 21 21 20 20 21 22 22 23 25 28 29 29 29 29 30 32 35 35 32 30 31 30 29
4 4 4 4 3 3 4 5 6 7 8 10 11 12 13 13 14 14 14 15 15 16 17 18 18 19 20 21 23 24 25 25 26 28 27 27 25 24 24 23 22 22 21 20 20 22 23 24 25 27 28 30 30 31 31 34 38 39 34 31 31 29 28
6 5 5 5 4 4 5 6 6 7 8 10 11 12 13 14 14 15 15 14 15 16 18 18 19 20 21 21 22 23 24 25 25 25 26 26 26 26 25 24 22 22 21 21 21 21 22 23 24 26 28 31 32 32 33 36 40 40 37 34 33 31 29
8 8 8 8 8 9 9 9 9 9 9 10 11 12 13 14 14 14 15 15 16 17 18 20 21 23 24 24 24 24 25 26 26 26 25 24 24 24 26 25 23 22 22 22 22 21 21 23 24 26 28 30 32 33 35 37 39 41 40 36 34 34 31
11 11 12 12 12 13 13 13 13 12 12 13 13 13 13 14 14 14 15 15 17 18 20 21 22 24 25 26 26 26 26 26 27 27 26 25 23 22 24 25 24 22 22 22 23 22 22 22 24 27 28 29 32 34 35 37 39 40 41 38 35 35 33
14 14 14 14 15 15 15 15 15 15 15 15 15 15 15 15 16 16 16 17 18 19 21 22 23 24 25 26 27 28 28 28 27 27 27 25 23 22 22 24 25 23 22 23 24 24 24 24 24 26 28 30 32 34 35 38 40 40 40 39 36 34 33
16 16 16 16 16 17 17 17 17 17 17 18 18 18 18 18 19 19 20 20 21 21 22 23 23 24 25 26 27 28 29 30 30 29 28 26 23 22 21 23 24 25 25 25 24 23 23 25 26 27 28 29 31 34 35 38 40 40 40 38 36 34 33
17 18 18 18 18 18 18 18 18 19 19 19 20 20 21 21 21 22 22 22 23 23 24 24 24 25 26 26 26 27 28 29 30 31 30 28 26 23 21 21 22 24 26 26 26 24 23 24 26 27 29 29 30 32 34 37 39 38 39 38 35 36 37
19 19 19 20 19 19 19 19 20 20 20 21 21 22 22 22 23 23 23 23 24 24 25 25 26 26 27 28 28 28 28 29 29 30 31 30 28 27 24 22 22 21 23 26 27 26 25 26 26 25 26 28 29 31 33 36 39 38 38 38 38 38 37
19 20 20 20 20 20 20 20 21 21 21 22 23 23 23 24 24 24 24 25 25 26 26 27 29 29 29 29 29 29 29 28 28 29 29 29 28 27 26 25 24 22 21 23 26 27 27 29 29 28 26 26 28 30 32 35 39 39 37 37 39 38 37
20 20 20 20 20 20 20 21 21 22 22 23 24 24 24 24 25 25 26 26 27 27 28 29 30 31 31 31 31 31 30 29 28 28 28 28 28 26 25 25 25 24 23 23 25 27 28 29 30 31 30 28 27 29 32 34 37 39 38 38 39 38 37
20 20 21 21 21 21 21 21 21 22 23 23 24 24 24 24 25 26 26 27 28 28 28 28 28 29 30 31 31 31 31 30 29 28 28 29 29 28 26 24 23 23 24 25 26 27 29 30 31 32 32 31 29 28 31 35 36 36 38 40 41 40 39
21 21 21 21 21 21 21 21 22 22 23 24 24 24 24 25 26 27 27 28 28 29 29 28 28 28 28 29 30 31 31 31 30 30 29 29 29 29 29 26 24 23 23 25 26 27 29 30 32 33 34 34 33 31 30 33 36 37 37 40 42 41 41
22 21 21 21 21 21 22 22 23 23 24 24 25 25 26 26 27 28 29 30 30 30 30 29 28 28 28 28 30 31 31 31 31 31 31 30 30 30 30 29 27 25 23 23 25 27 28 30 31 34 35 35 36 35 33 32 34 37 38 40 42 43 43
22 21 21 21 21 21 22 23 23 24 24 25 25 26 27 28 29 30 31 31 31 31 31 31 31 30 28 28 29 31 31 32 32 33 33 33 32 31 30 31 30 28 26 24 25 27 28 29 30 32 34 35 36 37 37 35 34 34 36 38 41 42 42
22 22 21 21 21 21 22 23 23 24 24 25 26 27 29 30 30 31 31 31 32 32 32 32 33 32 31 29 29 31 32 33 33 33 34 34 34 32 31 31 31 31 29 28 28 28 29 30 31 31 33 34 35 35 37 38 37 35 35 36 39 41 41
22 22 22 22 22 23 23 23 23 23 24 25 27 29 30 31 31 32 32 32 32 33 33 33 33 33 32 31 30 30 32 33 34 34 34 34 35 35 33 32 32 33 33 31 30 30 31 32 32 33 33 35 35 35 36 37 38 37 37 37 39 41 42
23 23 23 23 23 23 23 23 23 23 24 25 28 30 32 33 33 33 34 34 35 35 35 34 34 34 34 33 31 31 32 34 35 35 35 35 36 36 35 34 34 35 35 34 32 31 32 34 33 33 34 35 36 37 37 36 36 37 37 37 39 40 41
23 23 23 23 24 24 24 24 23 23 24 25 28 31 34 35 35 35 35 36 37 38 38 38 38 37 36 35 33 32 33 35 36 37 38 37 38 38 37 35 35 37 38 37 36 34 34 36 36 33 33 34 36 38 38 36 36 37 37 36 36 37 38
22 22 23 24 24 25 25 24 24 23 24 26 28 31 34 35 35 36 36 37 38 39 40 40 40 40 38 36 34 33 34 35 37 38 39 39 40 41 39 36 34 37 39 40 39 38 37 38 38 36 35 34 35 38 38 35 35 37 37 36 35 34 34
22 22 23 24 24 25 25 25 24 23 24 25 28 30 32 34 35 36 37 38 39 40 41 42 42 41 39 37 35 34 34 36 37 39 41 41 41 42 42 38 34 35 38 40 40 39 38 38 39 39 39 37 36 37 35 33 34 36 36 36 35 32 32
21 21 22 23 23 24 25 24 23 23 24 25 27 29 31 33 35 36 38 39 40 40 41 43 43 41 39 37 35 34 34 36 37 39 40 42 43 43 43 40 35 33 36 39 40 39 36 35 36 38 39 39 38 35 32 31 33 34 33 35 34 30 29
19 20 20 21 22 23 24 24 24 24 24 25 26 28 30 32 33 36 38 40 41 41 41 43 44 41 38 38 36 35 35 36 36 37 38 40 42 43 42 41 37 33 33 36 38 37 34 32 32 34 35 37 37 32 29 30 32 31 31 32 33 30 27
17 18 18 19 21 22 23 24 24 24 24 25 26 28 30 32 33 35 37 40 42 43 43 44 44 41 39 38 37 36 36 35 35 36 38 39 40 41 40 39 37 33 30 32 34 34 32 29 29 29 30 32 34 29 24 26 28 27 26 28 30 30 27
15 16 16 18 19 21 22 23 23 24 25 25 27 29 31 32 33 35 37 39 42 44 45 44 44 41 39 38 37 36 35 34 34 35 36 38 39 39 38 37 35 32 29 28 30 31 30 28 26 25 25 26 28 25 19 20 22 21 22 25 28 29 27
13 14 15 16 18 20 21 22 22 24 25 26 27 29 31 33 35 37 39 41 43 45 46 45 43 41 39 37 36 36 36 35 34 34 35 36 36 36 36 35 34 32 30 29 28 29 29 29 27 24 23 21 19 16 12 11 14 16 19 21 25 27 29
Wind_Direction
262 267 271 275 280 284 287 290 292 291 291 294 297 298 297 298 300 300 301 302 303 308 311 311 310 309 307 305 303 302 305 305 306 308 307 308 309 306 305 300 294 291 284 275 269 262 258 260 263 261 258 256 252 249 248 248 247 247 246 245 244 243 239
259 259 264 270 273 276 281 285 287 288 289 292 294 295 297 297 297 299 300 302 305 309 312 312 309 306 304 302 300 301 304 304 303 305 305 304 304 304 304 301 297 294 289 282 272 260 253 253 255 256 255 254 252 249 246 245 246 246 245 244 243 241 239
255 257 261 263 266 272 277 278 279 281 282 281 281 284 288 289 289 291 293 296 300 302 305 307 305 303 301 299 299 301 303 304 302 299 298 297 297 296 297 298 296 293 287 277 263 253 249 249 252 254 253 251 252 253 250 245 244 244 243 243 242 239 236
255 258 260 262 265 269 273 275 274 274 275 277 279 280 279 279 280 283 287 290 291 295 299 300 300 300 301 298 297 298 300 302 300 297 295 293 293 295 296 294 291 288 283 274 265 258 253 248 248 251 252 250 254 257 254 250 247 246 245 243 241 239 236
257 259 262 266 267 267 269 271 271 270 271 273 274 275 277 277 278 280 283 284 287 292 294 293 294 295 296 295 294 295 297 299 297 296 295 294 295 298 298 295 290 286 281 279 275 264 257 252 248 252 257 256 256 256 253 251 249 247 246 245 243 241 238
263 264 266 270 271 271 272 273 274 272 270 269 270 274 277 280 282 284 285 286 290 292 291 289 290 291 290 290 291 292 293 293 292 293 294 294 296 298 298 296 292 286 283 284 280 265 258 256 250 252 259 259 258 257 252 250 250 248 247 245 244 242 239
269 271 271 271 274 278 281 284 285 283 280 279 281 282 284 286 289 293 293 291 289 287 286 287 288 289 289 288 288 289 289 289 289 291 292 292 292 294 295 296 293 288 283 283 281 271 260 253 248 250 255 257 259 259 254 250 251 251 248 244 243 242 240
272 272 271 273 277 282 288 292 294 296 295 295 295 294 293 294 296 298 297 294 289 284 284 285 285 287 288 288 286 286 286 288 289 289 290 291 291 291 293 295 294 291 288 284 279 273 260 250 250 251 251 252 255 258 257 252 249 249 247 247 246 242 239
282 277 276 278 283 289 297 301 303 304 306 305 303 301 300 301 301 301 300 298 293 290 288 287 287 287 287 287 287 286 285 286 288 289 290 291 291 291 290 292 294 293 292 289 281 273 262 253 253 253 253 253 251 252 253 250 247 245 245 247 246 243 240
302 295 299 305 309 315 317 316 316 316 315 314 311 309 308 308 308 307 305 302 298 297 296 294 293 292 289 287 286 288 288 287 287 288 289 290 291 292 290 290 293 293 292 289 281 274 267 258 254 254 257 257 253 251 248 245 245 246 245 246 246 244 242
335 343 344 344 340 335 328 325 324 321 320 319 317 316 316 316 316 314 311 308 305 304 304 304 304 302 299 294 290 288 288 287 287 287 288 290 291 292 291 290 291 292 292 289 281 273 267 262 257 255 257 259 257 252 247 245 248 251 250 249 248 246 244
8 11 9 0 352 341 332 330 329 328 328 329 328 327 328 329 328 326 324 320 317 316 317 317 317 316 315 310 305 300 294 290 288 287 287 288 290 291 291 289 290 289 289 290 288 279 270 264 262 259 257 257 256 252 249 246 248 251 253 252 250 247 245
30 24 24 17 359 347 345 341 339 343 344 342 342 343 343 344 344 343 340 335 332 332 332 332 329 328 328 325 323 319 314 309 302 297 293 288 286 287 287 286 288 288 287 286 288 286 279 270 266 264 261 259 256 253 251 248 248 252 254 254 254 250 247
40 35 35 35 28 22 15 9 6 2 356 353 354 355 355 356 356 354 351 347 344 343 342 340 337 336 335 334 333 331 328 326 321 315 308 298 288 282 280 281 283 286 287 284 282 283 282 277 271 268 266 264 260 256 253 251 251 254 255 253 253 251 247
50 46 45 44 40 34 29 26 24 15 6 4 4 2 2 2 1 358 354 350 349 348 347 344 341 339 338 337 336 335 333 331 329 325 321 314 302 288 278 275 279 284 286 284 282 281 280 279 275 271 268 266 263 259 255 252 251 253 253 250 249 249 247
60 55 52 48 42 39 38 36 33 28 21 19 15 11 9 7 4 1 356 352 349 348 348 347 344 342 341 339 337 336 335 334 332 329 326 322 315 303 287 275 274 280 283 281 279 278 277 277 275 273 270 267 265 264 261 256 252 252 252 249 245 246 246
66 61 56 52 49 46 45 43 40 37 33 30 26 23 19 15 12 9 4 1 356 353 352 350 348 346 344 343 341 339 337 336 335 333 330 326 320 311 298 283 273 273 279 281 278 277 277 278 278 276 273 269 265 265 264 260 255 253 253 249 244 247 247
69 65 61 59 57 54 50 47 44 41 38 35 32 30 27 23 20 17 14 11 7 3 360 356 354 352 350 347 345 342 340 338 337 337 334 331 326 317 307 295 281 272 275 281 281 280 280 281 282 281 279 274 268 267 265 262 257 254 252 247 244 248 250
70 67 66 64 61 57 53 50 47 45 42 39 36 33 30 28 25 23 20 16 12 9 5 2 359 357 355 352 349 346 343 339 339 339 338 336 333 327 318 306 293 280 276 279 282 281 278 278 279 280 281 279 275 270 266 262 258 253 250 247 245 246 247
71 70 69 66 62 58 55 52 49 47 44 41 39 35 33 30 27 25 22 19 16 13 9 6 3 1 358 356 353 351 347 343 340 339 340 341 339 334 328 319 308 295 283 280 281 279 276 273 274 275 276 280 280 275 268 264 260 253 247 245 244 243 244
75 73 71 67 64 60 57 54 51 49 45 42 39 35 33 30 27 25 22 19 17 14 12 11 8 5 2 359 357 354 351 347 343 339 339 341 341 338 334 327 319 310 296 285 280 278 276 274 274 273 271 275 281 280 274 266 257 250 246 244 244 244 243
79 77 72 69 66 62 59 56 53 51 47 43 40 36 32 28 24 22 20 17 15 13 13 13 12 8 4 1 359 356 353 351 347 343 339 338 339 339 337 331 325 318 309 296 283 277 274 273 274 274 271 270 275 279 279 272 258 249 246 243 243 244 244
81 78 74 71 68 65 62 59 55 52 49 45 42 38 34 30 26 23 19 17 14 12 11 11 11 8 5 2 360 357 354 352 350 347 343 340 338 337 336 333 328 321 314 305 292 281 274 270 269 270 269 268 267 270 275 274 264 254 247 243 243 244 242
81 78 75 73 70 67 63 59 56 53 50 47 43 39 36 33 29 25 21 19 16 14 12 9 7 5 3 2 1 358 355 354 353 351 348 345 341 339 336 334 331 326 318 311 303 291 282 275 271 268 267 266 263 262 264 268 266 259 250 245 243 242 239
79 77 75 72 69 66 62 59 55 51 48 45 41 38 35 31 28 24 21 19 17 15 13 10 7 4 2 1 1 360 358 356 354 353 351 349 346 343 339 336 334 332 326 320 313 305 295 284 276 272 269 268 265 261 258 259 262 261 256 248 242 239 239
78 75 73 69 66 63 59 55 51 47 44 41 37 34 31 27 25 23 20 19 17 15 13 10 7 4 2 1 0 360 360 358 357 355 354 351 348 346 343 340 337 335 332 328 321 315 308 297 286 277 272 270 267 263 258 255 255 257 260 256 247 242 242
78 75 72 67 63 59 55 51 48 44 40 37 34 31 28 25 23 22 21 19 18 15 13 11 9 5 1 0 360 359 0 0 359 358 356 353 351 348 345 343 341 339 336 334 330 325 318 309 300 290 282 277 272 267 262 257 253 252 255 257 254 251 250
76 73 69 65 60 57 53 50 47 42 38 36 33 30 27 24 23 23 22 20 18 17 14 12 10 6 2 360 359 359 0 0 359 359 358 356 354 351 348 346 345 343 340 337 334 331 326 318 309 301 294 287 280 274 266 261 257 253 251 252 253 255 255
72 69 65 62 59 56 53 50 47 43 40 38 35 31 28 26 25 24 23 21 20 18 16 14 12 9 4 1 359 358 359 0 360 360 359 358 357 355 352 349 348 346 342 339 335 333 330 324 316 307 299 292 286 280 272 264 260 257 254 252 251 252 254
68 66 63 60 57 55 52 49 47 45 42 40 36 32 29 27 26 24 23 21 19 17 16 15 14 11 7 4 1 359 359 0 1 1 0 360 360 358 356 355 351 347 345 343 339 336 333 328 321 314 306 296 288 282 276 269 263 259 257 256 254 253 253
64 62 59 57 54 51 49 48 46 46 43 39 35 32 29 27 25 24 23 21 19 16 15 14 13 11 9 6 3 2 1 0 2 2 1 0 0 360 358 357 354 350 348 346 342 338 335 331 326 320 313 303 291 283 278 273 267 262 260 258 257 254 251
59 55 52 51 50 48 46 46 45 44 41 37 34 31 28 27 25 24 23 22 19 17 15 14 12 10 10 8 5 4 3 1 2 3 2 1 0 359 358 356 353 351 350 347 343 339 335 330 327 324 319 311 297 285 280 276 270 266 264 261 258 255 251
55 51 48 46 46 45 43 43 43 41 38 35 33 30 28 26 25 24 23 22 20 18 15 13 12 11 10 9 8 6 5 3 3 2 2 2 0 358 357 355 352 350 349 348 345 340 335 331 328 324 321 316 304 290 278 273 267 263 264 262 257 254 251
51 48 44 41 41 42 41 40 39 37 34 32 31 29 26 25 24 24 23 22 20 18 16 14 12 12 11 10 10 9 7 5 4 2 2 2 1 358 357 355 352 348 347 348 347 342 337 334 331 326 322 319 311 295 274 265 263 261 260 260 256 254 253
49 46 41 36 36 37 38 37 36 34 32 30 29 27 25 23 22 22 22 21 20 18 17 14 13 12 10 11 12 11 8 7 5 4 3 2 1 360 358 357 354 349 346 347 348 348 345 341 337 334 328 322 316 305 278 260 257 256 255 255 255 255 256
49 44 38 32 31 33 34 34 34 33 31 30 29 27 24 22 21 20 20 20 18 17 16 14 13 12 10 10 12 11 10 8 7 6 6 4 2 0 1 1 359 355 352 351 351 353 355 354 351 348 341 329 321 314 289 257 248 249 253 256 255 254 256
48 41 36 32 29 30 31 32 32 32 30 29 28 27 25 23 21 20 19 18 17 16 14 14 13 12 11 11 12 11 10 10 9 8 8 6 4 3 3 4 4 3 3 3 0 360 2 5 6 6 360 348 334 321 297 256 241 244 248 250 250 250 250
Height
1543 1543 1543 1543 1542 1542 1541 1541 1540 1539 1538 1537 1537 1536 1535 1534 1534 1533 1532 1531 1531 1530 1529 1529 1529 1528 1527 1526 1525 1523 1522 1521 1520 1519 1518 1517 1516 1515 1515 1515 1514 1513 1513 1513 1512 1512 1512 1511 1512 1513 1513 1514 1514 1515 1516 1517 1518 1520 1522 1523 1524 1525 1526
1543 1543 1542 1542 1542 1542 1541 1541 1540 1539 1538 1537 1536 1535 1535 1534 1533 1532 1531 1530 1529 1528 1528 1527 1527 1526 1525 1524 1523 1521 1520 1518 1518 1517 1516 1515 1515 1514 1513 1513 1511 1510 1510 1509 1509 1508 1508 1509 1509 1509 1510 1511 1511 1512 1513 1514 1515 1517 1518 1520 1521 1522 1523
1542 1542 1542 1542 1541 1541 1540 1540 1539 1538 1537 1536 1535 1534 1534 1533 1533 1532 1531 1530 1529 1527 1527 1525 1525 1524 1523 1522 1521 1519 1518 1517 1516 1515 1514 1513 1513 1512 1512 1511 1510 1508 1508 1506 1505 1505 1505 1505 1506 1506 1508 1508 1508 1509 1510 1511 1512 1513 1515 1516 1518 1519 1520
1541 1541 1541 1540 1540 1539 1538 1538 1538 1537 1536 1535 1534 1533 1532 1532 1532 1531 1530 1529 1528 1526 1525 1524 1523 1522 1521 1520 1519 1517 1516 1515 1514 1513 1512 1511 1510 1509 1509 1509 1508 1507 1506 1504 1503 1502 1501 1502 1503 1503 1505 1506 1506 1506 1507 1508 1509 1510 1511 1513 1514 1515 1517
1540 1540 1539 1539 1538 1537 1537 1536 1536 1535 1535 1534 1533 1532 1531 1530 1530 1529 1528 1527 1526 1525 1524 1523 1522 1520 1519 1518 1517 1515 1514 1513 1512 1511 1509 1508 1508 1507 1506 1506 1505 1504 1502 1501 1499 1499 1498 1499 1500 1501 1502 1503 1504 1504 1505 1506 1507 1508 1508 1509 1510 1512 1514
1539 1538 1538 1537 1536 1536 1535 1534 1534 1534 1533 1532 1531 1531 1530 1529 1528 1527 1527 1526 1525 1524 1522 1521 1520 1519 1518 1517 1515 1514 1512 1511 1510 1509 1508 1506 1506 1505 1504 1503 1502 1500 1499 1497 1496 1495 1496 1497 1498 1499 1500 1501 1501 1501 1503 1503 1504 1505 1505 1506 1507 1508 1510
1539 1538 1537 1537 1536 1535 1534 1533 1533 1532 1531 1531 1530 1529 1529 1528 1527 1526 1525 1525 1524 1522 1520 1519 1518 1517 1516 1515 1514 1512 1511 1509 1508 1507 1505 1504 1503 1503 1502 1500 1499 1497 1496 1495 1494 1493 1494 1494 1495 1496 1497 1498 1499 1499 1499 1500 1501 1501 1501 1502 1504 1505 1506
1539 1538 1538 1537 1536 1535 1534 1533 1533 1532 1531 1530 1529 1528 1527 1526 1526 1525 1524 1523 1522 1519 1518 1517 1516 1515 1514 1513 1512 1510 1509 1507 1506 1505 1503 1502 1501 1500 1499 1497 1496 1494 1493 1492 1491 1491 1491 1491 1492 1494 1495 1495 1496 1496 1496 1497 1498 1497 1498 1500 1501 1501 1502
1539 1538 1538 1537 1536 1535 1534 1533 1532 1531 1530 1529 1528 1528 1527 1526 1525 1524 1522 1521 1519 1517 1516 1515 1514 1513 1512 1510 1509 1508 1506 1505 1504 1502 1501 1500 1499 1497 1496 1495 1493 1492 1491 1490 1489 1489 1489 1489 1490 1491 1492 1493 1493 1493 1493 1493 1493 1493 1495 1496 1497 1498 1499
1539 1539 1538 1537 1536 1535 1534 1533 1532 1531 1530 1529 1528 1527 1526 1525 1524 1522 1521 1519 1518 1516 1514 1513 1512 1511 1509 1508 1506 1505 1504 1502 1501 1500 1499 1497 1496 1495 1493 1492 1491 1489 1489 1488 1487 1487 1487 1486 1487 1488 1489 1490 1490 1490 1490 1489 1489 1489 1491 1493 1493 1494 1496
1540 1539 1538 1536 1535 1535 1534 1533 1532 1531 1530 1529 1528 1527 1526 1525 1523 1522 1520 1518 1517 1515 1514 1512 1510 1508 1507 1505 1504 1503 1501 1500 1498 1497 1496 1495 1493 1492 1491 1489 1489 1487 1487 1486 1485 1485 1485 1484 1485 1485 1486 1487 1487 1487 1487 1487 1486 1486 1488 1489 1490 1491 1493
1540 1539 1537 1536 1535 1535 1534 1533 1532 1531 1530 1529 1528 1527 1526 1524 1523 1521 1520 1518 1516 1514 1513 1511 1509 1507 1505 1503 1501 1500 1498 1497 1495 1494 1493 1492 1491 1489 1488 1487 1486 1485 1485 1484 1483 1482 1482 1482 1482 1482 1482 1483 1484 1483 1484 1484 1482 1481 1484 1485 1486 1488 1490
1540 1539 1537 1537 1536 1535 1534 1533 1532 1531 1530 1529 1528 1527 1525 1524 1522 1521 1519 1517 1515 1513 1511 1509 1507 1505 1503 1502 1499 1497 1495 1494 1492 1491 1490 1489 1488 1487 1485 1484 1483 1483 1482 1482 1481 1480 1480 1479 1479 1479 1479 1480 1480 1480 1481 1481 1478 1477 1480 1482 1483 1485 1486
1539 1538 1537 1537 1536 1535 1534 1533 1532 1532 1531 1530 1528 1526 1525 1523 1521 1520 1518 1516 1514 1512 1510 1508 1506 1504 1502 1500 1498 1495 1493 1491 1489 1487 1486 1485 1485 1484 1482 1481 1480 1480 1480 1479 1478 1478 1477 1477 1477 1476 1476 1476 1476 1476 1477 1476 1474 1473 1476 1478 1479 1481 1482
1539 1539 1538 1537 1536 1535 1534 1533 1532 1531 1530 1529 1528 1526 1524 1522 1521 1519 1517 1515 1513 1511 1509 1507 1505 1502 1500 1498 1496 1494 1492 1489 1487 1485 1483 1482 1481 1480 1479 1478 1477 1477 1477 1476 1475 1475 1475 1474 1474 1473 1473 1473 1472 1472 1472 1472 1471 1470 1471 1474 1476 1476 1478
1540 1539 1539 1538 1537 1536 1534 1533 1532 1531 1530 1528 1527 1525 1523 1522 1520 1519 1517 1515 1513 1511 1509 1506 1504 1501 1499 1497 1495 1492 1490 1488 1485 1483 1481 1479 1478 1476 1475 1474 1474 1474 1474 1473 1472 1472 1472 1471 1471 1470 1469 1469 1468 1468 1468 1468 1467 1466 1466 1469 1471 1472 1473
1541 1540 1539 1538 1537 1536 1534 1533 1532 1531 1530 1528 1527 1525 1523 1522 1520 1518 1517 1515 1513 1510 1508 1506 1504 1501 1498 1496 1493 1491 1489 1487 1484 1482 1479 1477 1475 1473 1472 1471 1471 1471 1471 1469 1469 1469 1468 1468 1468 1467 1466 1465 1464 1464 1463 1463 1463 1462 1462 1463 1465 1467 1469
1542 1541 1540 1539 1538 1536 1535 1534 1533 1532 1530 1528 1527 1525 1523 1521 1520 1518 1516 1514 1512 1510 1507 1505 1503 1500 1498 1495 1493 1490 1487 1485 1483 1480 1478 1476 1473 1471 1469 1468 1467 1467 1467 1466 1466 1466 1465 1465 1464 1463 1462 1461 1460 1460 1459 1459 1458 1458 1458 1458 1460 1462 1464
1542 1542 1541 1539 1538 1537 1536 1535 1534 1532 1531 1529 1527 1525 1524 1522 1520 1518 1516 1514 1512 1510 1507 1505 1502 1500 1497 1495 1492 1489 1487 1484 1481 1479 1476 1474 1472 1469 1467 1466 1465 1464 1464 1464 1463 1462 1462 1461 1460 1459 1458 1457 1456 1456 1455 1454 1454 1454 1454 1454 1456 1458 1459
1543 1542 1541 1540 1539 1538 1537 1536 1535 1533 1532 1530 1528 1526 1525 1523 1521 1519 1517 1515 1513 1510 1508 1505 1502 1500 1497 1494 1491 1488 1486 1483 1480 1478 1475 1472 1470 1468 1466 1464 1462 1462 1461 1460 1459 1458 1457 1456 1454 1454 1453 1453 1452 1452 1450 1449 1449 1449 1450 1451 1452 1453 1454
1544 1543 1542 1541 1540 1539 1538 1537 1536 1534 1533 1531 1529 1527 1526 1524 1522 1520 1518 1516 1513 1511 1508 1505 1501 1499 1496 1493 1491 1488 1485 1482 1479 1476 1474 1471 1469 1466 1464 1462 1461 1459 1458 1457 1456 1455 1454 1452 1450 1449 1448 1448 1448 1447 1446 1445 1444 1444 1445 1446 1447 1448 1450
1545 1544 1543 1542 1541 1540 1539 1538 1537 1536 1534 1532 1530 1529 1527 1525 1523 1521 1519 1516 1514 1511 1508 1505 1502 1499 1496 1493 1490 1487 1485 1481 1478 1475 1472 1470 1467 1465 1463 1461 1459 1457 1455 1454 1453 1451 1450 1449 1447 1445 1444 1444 1444 1443 1443 1442 1440 1440 1440 1442 1443 1444 1446
1546 1545 1544 1543 1543 1542 1541 1540 1538 1537 1535 1533 1532 1530 1528 1526 1524 1522 1519 1517 1514 1511 1509 1506 1503 1501 1497 1494 1491 1487 1484 1481 1478 1474 1471 1468 1465 1463 1461 1458 1456 1455 1453 1450 1448 1447 1445 1444 1443 1441 1440 1439 1439 1439 1438 1438 1437 1436 1436 1436 1437 1439 1441
1547 1546 1545 1545 1544 1543 1542 1541 1539 1538 1536 1535 1533 1531 1530 1527 1525 1523 1520 1518 1515 1512 1509 1506 1504 1501 1498 1494 1491 1488 1484 1481 1477 1474 1470 1467 1464 1461 1458 1456 1453 1451 1449 1447 1444 1442 1440 1439 1438 1436 1435 1434 1434 1434 1433 1433 1432 1432 1431 1431 1432 1434 1435
1548 1547 1547 1546 1545 1544 1543 1542 1540 1539 1537 1536 1534 1532 1530 1528 1526 1523 1521 1518 1515 1512 1509 1506 1503 1501 1497 1494 1491 1488 1484 1481 1477 1473 1470 1466 1463 1459 1456 1453 1451 1448 1446 1443 1440 1438 1435 1434 1433 1431 1430 1429 1428 1428 1428 1428 1427 1427 1427 1426 1426 1427 1428
1549 1548 1548 1547 1546 1545 1544 1542 1541 1539 1538 1536 1535 1533 1531 1528 1526 1524 1521 1518 1515 1512 1509 1506 1503 1500 1497 1494 1491 1488 1485 1481 1477 1473 1470 1466 1463 1459 1455 1451 1448 1446 1443 1440 1437 1434 1431 1429 1427 1426 1424 1423 1422 1422 1422 1422 1422 1422 1422 1422 1421 1421 1422
1550 1549 1549 1548 1547 1546 1544 1543 1542 1540 1539 1537 1535 1533 1531 1529 1526 1524 1521 1518 1515 1512 1509 1506 1503 1499 1496 1493 1490 1487 1484 1481 1477 1474 1470 1466 1462 1458 1454 1450 1447 1444 1441 1438 1434 1431 1427 1424 1422 1421 1419 1418 1417 1416 1416 1416 1417 1417 1417 1417 1417 1416 1417
1551 1550 1550 1549 1548 1547 1545 1544 1542 1541 1540 1538 1536 1534 1531 1529 1527 1524 1521 1519 1516 1513 1510 1506 1503 1499 1496 1493 1490 1487 1484 1480 1477 1473 1470 1466 1462 1457 1454 1450 1446 1443 1439 1436 1433 1429 1425 1421 1418 1416 1414 1412 1411 1410 1409 1410 1411 1412 1412 1412 1412 1412 1413
1552 1552 1551 1550 1549 1547 1546 1545 1543 1542 1541 1539 1537 1535 1532 1530 1527 1524 1522 1519 1516 1513 1510 1506 1503 1499 1496 1492 1489 1486 1483 1479 1476 1472 1469 1465 1461 1457 1453 1449 1445 1442 1438 1434 1431 1427 1423 1419 1415 1412 1410 1407 1405 1404 1403 1405 1406 1406 1407 1407 1407 1407 1408
1553 1553 1552 1551 1549 1548 1547 1545 1544 1543 1541 1540 1538 1535 1533 1530 1527 1525 1522 1519 1516 1513 1510 1506 1503 1499 1495 1492 1488 1485 1482 1479 1475 1472 1468 1464 1460 1457 1453 1449 1445 1441 1437 1433 1429 1425 1421 1416 1412 1409 1405 1402 1400 1398 1397 1400 1401 1400 1401 1402 1403 1403 1404
1555 1554 1552 1551 1550 1548 1547 1546 1545 1544 1542 1540 1539 1536 1534 1531 1528 1525 1522 1519 1516 1513 1510 1506 1503 1499 1495 1492 1488 1484 1481 1478 1474 1471 1467 1463 1460 1456 1452 1449 1446 1441 1436 1432 1427 1423 1419 1414 1409 1405 1401 1398 1394 1392 1393 1395 1396 1395 1396 1397 1398 1399 1400
1555 1554 1553 1551 1550 1549 1548 1547 1546 1545 1543 1541 1539 1537 1535 1532 1529 1526 1523 1520 1517 1514 1510 1507 1503 1499 1495 1492 1488 1484 1481 1477 1474 1470 1466 1462 1458 1455 1451 1448 1445 1441 1436 1431 1426 1421 1417 1412 1407 1402 1398 1393 1389 1386 1389 1391 1390 1390 1391 1391 1392 1394 1395
1556 1555 1553 1552 1551 1550 1549 1548 1547 1545 1543 1542 1540 1538 1535 1532 1530 1527 1524 1521 1518 1514 1510 1507 1503 1499 1496 1492 1489 1485 1481 1477 1473 1470 1466 1462 1458 1454 1450 1446 1443 1439 1435 1430 1425 1420 1415 1411 1406 1400 1395 1390 1385 1382 1384 1384 1383 1384 1385 1386 1388 1389 1390
1556 1555 1554 1553 1552 1551 1550 1549 1547 1545 1544 1542 1540 1538 1535 1533 1530 1527 1524 1521 1518 1515 1511 1507 1503 1500 1496 1493 1490 1486 1483 1479 1475 1471 1467 1463 1458 1454 1449 1445 1441 1438 1434 1429 1425 1419 1414 1409 1404 1399 1393 1388 1382 1378 1378 1377 1377 1379 1380 1381 1383 1385 1386
1557 1556 1555 1554 1553 1552 1550 1549 1547 1545 1544 1542 1540 1538 1535 1533 1530 1528 1525 1522 1518 1515 1512 1508 1504 1500 1497 1494 1491 1488 1484 1481 1477 1473 1468 1463 1459 1455 1450 1446 1442 1437 1433 1429 1425 1420 1414 1408 1403 1397 1391 1385 1379 1374 1372 1372 1373 1374 1375 1377 1379 1380 1382
1557 1557 1556 1555 1553 1552 1550 1549 1547 1546 1544 1542 1540 1538 1535 1533 1530 1527 1525 1522 1518 1515 1512 1508 1505 1501 1498 1495 1492 1489 1486 1482 1478 1474 1469 1465 1461 1457 1452 1448 1443 1438 1434 1429 1425 1420 1414 1408 1402 1396 1390 1383 1377 1372 1369 1368 1369 1370 1371 1374 1375 1377 1378
1558 1557 1556 1555 1554 1552 1551 1549 1548 1546 1544 1542 1540 1538 1535 1533 1530 1527 1524 1521 1519 1515 1512 1509 1505 1502 1499 1496 1493 1490 1487 1483 1479 1475 1471 1467 1463 1459 1454 1450 1445 1440 1435 1430 1425 1421 1415 1410 1403 1396 1389 1383 1377 1372 1369 1367 1367 1368 1370 1372 1373 1374 1375